KD9NSC Weather Reports


time (UTC)temp
F
wind
direction
speed
knots
gust
knots
rain 1hr
in
rain 24hr
in
rain mn
in
humidity
%
barometer
mb
20260503213302 63 323 0.0 0.0 0.00 0.00 0.00 48 1010.1
20260503212758 63 344 0.0 0.9 0.00 0.00 0.00 50 1010.2
20260503212256 63 5 0.9 0.9 0.00 0.00 0.00 49 1010.2
20260503211754 63 19 0.0 0.9 0.00 0.00 0.00 49 1010.6
20260503211250 62 45 0.0 0.0 0.00 0.00 0.00 51 1010.5
20260503210744 62 30 0.9 0.9 0.00 0.00 0.00 49 1010.6
20260503210242 62 339 0.0 0.0 0.00 0.00 0.00 52 1010.5
20260503205743 61 337 1.7 2.6 0.00 0.00 0.00 53 1010.7
20260503205240 60 358 0.0 0.9 0.00 0.00 0.00 66 1010.7
20260503204736 60 355 0.9 0.9 0.00 0.00 0.00 64 1010.8
20260503204234 60 327 0.9 0.9 0.00 0.00 0.00 64 1010.8
20260503203731 59 3 0.0 0.9 0.00 0.00 0.00 65 1010.7
20260503203228 58 9 0.9 0.9 0.00 0.00 0.00 67 1010.8
20260503202725 58 11 0.0 0.0 0.00 0.00 0.00 68 1010.9
20260503202223 58 7 1.7 1.7 0.00 0.00 0.00 67 1010.9
20260503201721 57 338 0.9 1.7 0.00 0.00 0.00 67 1011.1
20260503201218 57 355 0.0 0.0 0.00 0.00 0.00 69 1011.2
20260503200714 57 339 1.7 1.7 0.00 0.00 0.00 68 1011.2
20260503200211 57 3 1.7 1.7 0.00 0.00 0.00 67 1011.4
20260503195708 57 22 0.9 0.9 0.00 0.00 0.00 69 1011.4
20260503195205 56 73 1.7 1.7 0.00 0.00 0.00 69 1011.7
20260503194702 56 12 0.0 0.9 0.00 0.00 0.00 71 1011.7
20260503194157 55 56 0.0 0.9 0.00 0.00 0.00 72 1011.8
20260503193654 55 348 0.9 0.9 0.00 0.00 0.00 71 1011.9
20260503193150 55 18 0.9 0.9 0.00 0.00 0.00 73 1012.1
20260503192645 54 11 0.9 0.9 0.00 0.00 0.00 76 1012.1
20260503192141 53 38 0.9 1.7 0.00 0.00 0.00 75 1012.2
20260503191638 53 358 0.9 0.9 0.00 0.00 0.00 78 1012.2
20260503191135 52 27 0.0 0.9 0.00 0.00 0.00 79 1012.5
20260503190632 52 1 0.0 0.9 0.00 0.00 0.00 81 1012.4
20260503190129 51 71 0.9 0.9 0.00 0.00 0.00 82 1012.5
20260503185626 51 27 0.9 0.9 0.00 0.00 0.00 83 1012.6
20260503185121 51 16 0.9 1.7 0.00 0.00 0.00 83 1012.9
20260503184616 51 10 1.7 1.7 0.00 0.00 0.00 84 1013.2
20260503184113 51 3 0.9 0.9 0.00 0.00 0.00 82 1013.5
20260503183610 51 3 0.0 0.9 0.00 0.00 0.00 80 1013.5
20260503183107 51 42 1.7 1.7 0.00 0.00 0.00 80 1013.9
20260503182605 51 8 0.0 0.0 0.00 0.00 0.00 83 1014.5
20260503182103 51 8 1.7 1.7 0.00 0.00 0.00 83 1014.5
20260503181600 50 57 0.0 0.9 0.00 0.00 0.00 84 1014.7
20260503181056 50 354 0.0 0.0 0.00 0.00 0.00 84 1014.6
20260503180553 50 12 0.0 0.0 0.00 0.00 0.00 84 1015.0
20260503180051 50 1 0.0 0.0 0.00 0.00 0.00 83 1015.1
20260503175548 50 11 0.0 0.0 0.00 0.00 0.00 82 1015.2
20260503175045 50 11 0.0 0.9 0.00 0.00 0.00 82 1015.2
20260503174542 51 33 0.0 0.0 0.00 0.00 0.00 82 1015.2
20260503174038 51 328 0.0 0.0 0.00 0.00 0.00 80 1015.6
20260503173533 52 289 0.0 0.9 0.00 0.00 0.00 79 1015.5
20260503173030 54 325 0.0 0.0 0.00 0.00 0.00 74 1015.5
20260503172528 54 328 0.0 0.0 0.00 0.00 0.00 68 1015.6
20260503172024 55 355 0.9 0.9 0.00 0.00 0.00 65 1015.4
20260503171521 56 310 0.0 0.0 0.00 0.00 0.00 63 1015.4
20260503171018 56 352 0.0 0.0 0.00 0.00 0.00 63 1015.4
20260503170514 56 345 0.0 0.9 0.00 0.00 0.00 64 1015.6
20260503150907 58 335 0.0 0.0 0.00 0.00 0.00 55 1015.8
20260503150403 57 24 0.0 0.9 0.00 0.00 0.00 57 1015.8
20260503131257 51 358 0.0 0.0 0.00 0.00 0.00 60 1016.7
20260503130754 51 10 0.0 0.9 0.00 0.00 0.00 60 1016.8
20260503130251 51 339 0.0 0.0 0.00 0.00 0.00 61 1016.7
20260503120217 49 49 0.0 0.0 0.00 0.00 0.00 60 1016.7
20260503110639 43 316 0.0 0.0 0.00 0.00 0.00 72 1016.7
20260503110137 43 314 0.0 0.0 0.00 0.00 0.00 73 1016.5
20260503081446 40 317 0.0 0.0 0.00 0.00 0.00 76 1017.1
20260503080943 40 317 0.0 0.0 0.00 0.00 0.00 76 1017.3
20260503080440 40 317 0.0 0.0 0.00 0.00 0.00 76 1017.2
20260503072916 40 317 0.0 0.0 0.00 0.00 0.00 78 1017.0
20260503072414 40 317 0.0 0.0 0.00 0.00 0.00 78 1017.3
20260503071910 40 316 0.0 0.0 0.00 0.00 0.00 78 1017.1
20260503071408 40 316 0.0 0.0 0.00 0.00 0.00 78 1017.1
20260503070903 40 316 0.0 0.0 0.00 0.00 0.00 78 1017.2
20260503070401 40 316 0.0 0.0 0.00 0.00 0.00 78 1017.2
20260503060327 40 316 0.0 0.0 0.00 0.00 0.00 80 1018.1
20260503054814 40 316 0.0 0.0 0.00 0.00 0.00 79 1018.0
20260503054310 40 316 0.0 0.0 0.00 0.00 0.00 78 1017.9
20260503053808 40 316 0.0 0.0 0.00 0.00 0.00 78 1017.9
20260503053307 40 316 0.0 0.0 0.00 0.00 0.00 77 1018.0
20260503052803 40 316 0.0 0.0 0.00 0.00 0.00 78 1018.0
20260503052259 40 316 0.0 0.0 0.00 0.00 0.00 78 1018.1
20260503051754 40 316 0.0 0.0 0.00 0.00 0.00 78 1018.1
20260503051246 40 316 0.0 0.0 0.00 0.00 0.00 78 1018.1
20260503050742 40 316 0.0 0.0 0.00 0.00 0.00 78 1018.1
20260503050233 41 316 0.0 0.0 0.00 0.00 0.00 78 1018.2
20260503045731 40 316 0.0 0.0 0.00 0.00 0.00 78 1018.2
20260503045229 40 316 0.0 0.0 0.00 0.00 0.00 79 1018.1
20260503044724 40 316 0.0 0.0 0.00 0.00 0.00 78 1018.3
20260503044222 41 316 0.0 0.0 0.00 0.00 0.00 79 1018.3
20260503043719 40 316 0.0 0.0 0.00 0.00 0.00 79 1018.3
20260503043216 41 316 0.0 0.0 0.00 0.00 0.00 79 1018.4
20260503042712 41 316 0.0 0.0 0.00 0.00 0.00 79 1018.4
20260503042209 41 316 0.0 0.0 0.00 0.00 0.00 78 1018.4
20260503041705 41 316 0.0 0.0 0.00 0.00 0.00 77 1018.3
20260503041203 41 316 0.0 0.0 0.00 0.00 0.00 77 1018.4
20260503040700 41 316 0.0 0.0 0.00 0.00 0.00 78 1018.4
20260503040157 41 316 0.0 0.0 0.00 0.00 0.00 78 1018.7
20260503035654 41 316 0.0 0.0 0.00 0.00 0.00 78 1018.5
20260503035151 41 316 0.0 0.0 0.00 0.00 0.00 78 1018.4
20260503034649 41 316 0.0 0.0 0.00 0.00 0.00 77 1018.8
20260503034145 41 316 0.0 0.0 0.00 0.00 0.00 77 1018.5
20260503033643 41 316 0.0 0.0 0.00 0.00 0.00 77 1018.7
20260503033140 41 316 0.0 0.0 0.00 0.00 0.00 77 1018.5
20260503032638 41 316 0.0 0.0 0.00 0.00 0.00 76 1018.4
20260503032137 41 316 0.0 0.0 0.00 0.00 0.00 77 1018.4
20260503031634 41 316 0.0 0.0 0.00 0.00 0.00 77 1018.5
20260503031132 41 316 0.0 0.0 0.00 0.00 0.00 77 1018.5
20260503030627 41 316 0.0 0.0 0.00 0.00 0.00 76 1018.5
20260503030124 41 316 0.0 0.0 0.00 0.00 0.00 75 1018.7
20260503025621 42 316 0.0 0.0 0.00 0.00 0.00 74 1018.8
20260503025119 42 316 0.0 0.0 0.00 0.00 0.00 74 1018.7
20260503024615 42 316 0.0 0.0 0.00 0.00 0.00 74 1018.7
20260503024112 42 316 0.0 0.0 0.00 0.00 0.00 74 1018.8
20260503023609 42 316 0.0 0.0 0.00 0.00 0.00 73 1018.8
20260503023107 42 316 0.0 0.0 0.00 0.00 0.00 73 1018.7
20260503022602 42 316 0.0 0.0 0.00 0.00 0.00 73 1018.5
20260503022057 42 316 0.0 0.0 0.00 0.00 0.00 74 1018.5
20260503021555 42 316 0.0 0.0 0.00 0.00 0.00 72 1018.8
20260503021051 43 316 0.0 0.0 0.00 0.00 0.00 71 1018.5
20260503020548 43 316 0.0 0.0 0.00 0.00 0.00 71 1018.5
20260503020045 43 316 0.0 0.0 0.00 0.00 0.00 70 1018.7
20260503015542 43 316 0.0 0.0 0.00 0.00 0.00 71 1018.7
20260503015039 43 316 0.0 0.0 0.00 0.00 0.00 71 1018.7
20260503014535 43 316 0.0 0.0 0.00 0.00 0.00 72 1018.5
20260503014033 43 316 0.0 0.0 0.00 0.00 0.00 72 1018.4
20260503013530 43 316 0.0 0.0 0.00 0.00 0.00 71 1018.4
20260503013028 44 316 0.0 0.0 0.00 0.00 0.00 71 1018.3
20260503012525 44 316 0.0 0.0 0.00 0.00 0.00 70 1018.3
20260503012021 44 316 0.0 0.0 0.00 0.00 0.00 69 1018.5
20260503011518 44 316 0.0 0.0 0.00 0.00 0.00 71 1018.3
20260503011015 45 316 0.0 0.0 0.00 0.00 0.00 66 1018.4
20260503010511 45 316 0.0 0.0 0.00 0.00 0.00 65 1018.4
20260503010009 45 316 0.0 0.0 0.00 0.00 0.00 64 1018.4
20260503005506 46 316 0.0 0.0 0.00 0.00 0.00 63 1018.4
20260503005003 46 316 0.0 0.0 0.00 0.00 0.00 64 1018.5
20260503004459 46 316 0.0 0.0 0.00 0.00 0.00 64 1018.5
20260503003957 47 316 0.0 0.0 0.00 0.00 0.00 64 1018.5
20260503003454 47 316 0.0 0.0 0.00 0.00 0.00 61 1018.4
20260503002951 47 316 0.0 0.0 0.00 0.00 0.00 63 1018.5
20260503002448 48 316 0.0 0.0 0.00 0.00 0.00 63 1018.5
20260503001944 48 316 0.0 0.0 0.00 0.00 0.00 64 1018.4
20260503001441 48 316 0.0 0.0 0.00 0.00 0.00 59 1018.7
20260503000938 48 316 0.0 0.0 0.00 0.00 0.00 58 1018.7
20260503000437 48 316 0.0 0.0 0.00 0.00 0.00 59 1018.7
20260502235933 49 316 0.0 0.0 0.00 0.00 0.00 58 1018.7
20260502235429 49 316 0.0 0.0 0.00 0.00 0.00 57 1018.5
20260502234927 50 316 0.0 0.0 0.00 0.00 0.00 55 1018.8
20260502234423 50 316 0.0 0.0 0.00 0.00 0.00 58 1019.0
20260502233920 50 316 0.0 0.0 0.00 0.00 0.00 58 1018.9
20260502233415 50 316 0.0 0.0 0.00 0.00 0.00 53 1018.9
20260502232913 50 316 0.0 0.0 0.00 0.00 0.00 49 1018.9
20260502232409 50 316 0.0 0.0 0.00 0.00 0.00 46 1018.8
20260502231906 50 344 0.0 0.0 0.00 0.00 0.00 47 1019.1
20260502231404 50 300 0.0 0.0 0.00 0.00 0.00 50 1019.0
20260502230901 50 331 0.0 0.0 0.00 0.00 0.00 54 1018.9
20260502230359 50 331 0.0 0.0 0.00 0.00 0.00 49 1018.9
20260502225856 51 329 0.0 0.0 0.00 0.00 0.00 50 1019.1
20260502225353 51 321 0.0 0.0 0.00 0.00 0.00 52 1018.9
20260502224850 51 321 0.0 0.0 0.00 0.00 0.00 46 1019.0
20260502224346 51 334 0.0 0.0 0.00 0.00 0.00 47 1019.1
20260502223844 51 335 0.0 0.0 0.00 0.00 0.00 47 1019.1
20260502223341 51 342 0.0 0.0 0.00 0.00 0.00 43 1019.0
20260502222838 51 323 0.0 0.0 0.00 0.00 0.00 49 1019.1
20260502222336 51 329 0.0 0.0 0.00 0.00 0.00 49 1019.1
20260502221832 51 333 0.0 0.0 0.00 0.00 0.00 45 1019.1
20260502221328 51 267 0.0 0.9 0.00 0.00 0.00 46 1019.3
20260502220826 50 324 0.0 0.0 0.00 0.00 0.00 46 1019.2
20260502220321 50 35 0.0 0.9 0.00 0.00 0.00 49 1019.5
20260502215817 50 317 0.0 0.0 0.00 0.00 0.00 52 1019.3
20260502215315 50 324 0.0 0.0 0.00 0.00 0.00 47 1019.3
20260502214812 50 334 0.0 0.0 0.00 0.00 0.00 49 1019.3
20260502214303 50 316 0.0 0.0 0.00 0.00 0.00 49 1019.4
20260502213800 50 349 0.0 0.0 0.00 0.00 0.00 49 1019.5